Tiempo atmosférico en la estación meteorológica de Padrón, A Coruña (100 m.)



Fecha
DESCASC
Temp. máxima en grados centígrados (hora)
DESCASC
Temp. mínima en grados centígrados (hora)
DESCASC
Temp. media en grados centígrados
DESCASC
Racha de viento máxima en m/sg (hora)
DESCASC
Velocidad máxima media en intervalos de 10 minutos(hora)
DESCASC
Precipitaciones diarias en mm
DESCASC
Precipitaciones de 00:00 a 06:00 en mm
DESCASC
Precipitaciones de 06:00 a 12:00 en mm
DESCASC
Precipitaciones de 12:00 a 18:00 en mm
DESCASC
Precipitaciones de 18:00 a 24:00 en mm
DESCASC
14-12-2019 13.4 (15:20) 11.5 (04:40) 12.4 20 (20:50) 6.67 (22:10) 12.5 10.4 1.1 0.1 0.9
13-12-2019 13.7 (12:10) 11.3 (19:30) 12.5 11.67 (21:20) 4.17 (19:10) 4.7 1.6 1.1 0.7 1.3
12-12-2019 13 (19:30) 8.9 (00:10) 10.9 11.94 (12:00) 5.56 (12:30) 32.7 7 13 11.4 1.3
11-12-2019 11.8 (14:10) 5.1 (00:00) 8.5 9.44 (01:40) 3.61 (01:50) 11.7 10 0 0.8 0.9
10-12-2019 10.6 (15:20) 2.7 (00:00) 6.7 8.61 (23:00) 5.56 (02:00) 4.2 0 0 0 4.2
09-12-2019 12 (16:20) 4.8 (00:00) 8.4 6.67 (03:50) 4.72 (05:30) 0 0 0 0 0
08-12-2019 13 (15:10) 6.2 (00:00) 9.6 6.39 (15:30) 2.78 (23:20) 5 2.1 2.6 0.3 0
07-12-2019 11.7 (23:50) 6.1 (00:00) 8.9 5.83 (04:50) 4.72 (04:50) 1.1 0 0.1 0.1 0.9
06-12-2019 14.4 (14:50) 4.9 (00:00) 9.6 6.67 (07:10) 4.72 (07:20) 0 0 0 0 0
05-12-2019 15.6 (15:40) 4.8 (00:00) 10.2 10.28 (13:50) 5.28 (13:30) 0 0 0 0 0
04-12-2019 -- (--) -- (--) -- -- (--) -- (--) -- -- 0 0 0
03-12-2019 -- (--) -- (--) -- -- (--) -- (--) -- -- -- -- --
02-12-2019 -- (--) -- (--) -- -- (--) -- (--) -- -- -- -- --
01-12-2019 -- (--) -- (--) -- -- (--) -- (--) -- 9.5 -- -- --
30-11-2019 14.9 (00:20) 9.1 (00:00) 12 15.56 (01:40) 6.67 (01:30) 18.8 7.3 1.1 0.1 10.3
29-11-2019 15.2 (16:00) 9.6 (00:00) 12.4 12.22 (23:59) 5 (23:59) 3.3 0.1 0 0 3.2
28-11-2019 -- (--) -- (--) -- -- (--) -- (--) -- -- -- -- --
27-11-2019 -- (--) -- (--) -- -- (--) -- (--) -- -- -- -- --
26-11-2019 -- (--) -- (--) -- -- (--) -- (--) -- -- -- -- --
25-11-2019 -- (--) -- (--) -- -- (--) -- (--) -- -- -- -- --
24-11-2019 -- (--) -- (--) -- -- (--) -- (--) -- -- -- -- --
23-11-2019 -- (--) -- (--) -- -- (--) -- (--) -- -- -- -- --
22-11-2019 -- (--) -- (--) -- -- (--) -- (--) -- -- -- -- --
21-11-2019 -- (--) -- (--) -- -- (--) -- (--) -- -- -- -- --
20-11-2019 -- (--) -- (--) -- -- (--) -- (--) -- -- -- -- --
19-11-2019 -- (--) -- (--) -- -- (--) -- (--) -- -- -- -- --
18-11-2019 -- (--) -- (--) -- -- (--) -- (--) -- -- -- -- --
17-11-2019 -- (--) -- (--) -- -- (--) -- (--) -- -- -- -- --
16-11-2019 -- (--) -- (--) -- -- (--) -- (--) -- -- -- -- --

Gráficas

Temp. máximas Temp. mínimas Temp. medias Precipitaciones Rachas de viento máximas Velocidades máximas media en intervalos de 10 minutos

Datos horarios

Fecha y hora oficial Temperatura (ºC) Velocidad del viento (km/h) Dirección del viento Racha (km/h) Dirección de racha Precipitación (mm) Presión (hPa) Tendencia (hPa) Humedad (%)
2019-12-15 23:00:00 8.7 0 Calma 7 Sudoeste 0 -- -- 91
2019-12-15 22:00:00 8.6 0 Calma 9 Oeste 0 -- -- 91
2019-12-15 21:00:00 9.1 3 Oeste 10 Sudoeste 0 -- -- 91
2019-12-15 20:00:00 9.2 3 Oeste 13 Oeste 0 -- -- 91
2019-12-15 19:00:00 9.4 2 Noroeste 16 Sudoeste 0 -- -- 90
2019-12-15 18:00:00 10.1 8 Sudoeste 20 Sudoeste 0 -- -- 83
2019-12-15 17:00:00 10.2 7 Sudoeste 22 Sudoeste 0 -- -- 89
2019-12-15 16:00:00 10.5 6 Oeste 18 Sudoeste 0 -- -- 95
2019-12-15 15:00:00 10.9 6 Oeste 16 Sudoeste 0.1 -- -- 95
2019-12-15 14:00:00 10.5 6 Oeste 14 Sudoeste 0.1 -- -- 95
2019-12-15 13:00:00 10.7 6 Oeste 15 Oeste 0.1 -- -- 95
2019-12-15 12:00:00 9.9 6 Oeste 18 Oeste 1.4 -- -- 95
2019-12-15 11:00:00 9.7 3 Oeste 12 Sudoeste 1.5 -- -- 95
2019-12-15 10:00:00 9.4 4 Oeste 16 Oeste 1 -- -- 95
2019-12-15 09:00:00 9.4 6 Oeste 12 Oeste 0.4 -- -- 95
2019-12-15 08:00:00 9.5 5 Oeste 14 Sudoeste 0.7 -- -- 95
2019-12-15 07:00:00 10.1 4 Oeste 10 Sudoeste 1.7 -- -- 95
2019-12-15 06:00:00 10.5 2 Oeste 17 Oeste 3.4 -- -- 95
2019-12-15 05:00:00 10.6 9 Oeste 19 Oeste 4.8 -- -- 95
2019-12-15 04:00:00 11.3 10 Oeste 53 Sudoeste 11.1 -- -- 95
2019-12-15 03:00:00 12.8 18 Oeste 48 Oeste 4.8 -- -- 94
2019-12-15 02:00:00 13.3 22 Oeste 59 Oeste 0.1 -- -- 94
2019-12-15 01:00:00 12.9 23 Oeste 64 Oeste 0.4 -- -- 94
2019-12-15 00:00:00 12.8 23 Oeste 56 Oeste 0.4 -- -- 93
2019-12-14 23:00:00 13.2 22 Oeste 55 Oeste 0 -- -- 93
2019-12-14 22:00:00 12.9 23 Oeste 72 Oeste 0.1 -- -- 94
2019-12-14 21:00:00 13 23 Oeste 72 Oeste 0 -- -- 93
2019-12-14 20:00:00 12.9 22 Oeste 57 Oeste 0.1 -- -- 93
2019-12-14 19:00:00 12.4 22 Oeste 49 Oeste 0.3 -- -- 93
2019-12-14 18:00:00 12.4 19 Oeste 52 Oeste 0.1 -- -- 92
2019-12-14 17:00:00 12.7 21 Oeste 60 Oeste 0 -- -- 93
2019-12-14 16:00:00 13 21 Oeste 53 Oeste 0 -- -- 90
2019-12-14 15:00:00 13.2 14 Oeste 48 Oeste 0 -- -- 90
2019-12-14 14:00:00 12.8 15 Oeste 48 Oeste 0 -- -- 94
2019-12-14 13:00:00 12.8 17 Oeste 38 Sudoeste 0 -- -- 95
2019-12-14 12:00:00 11.8 5 Oeste 28 Oeste 0.1 -- -- 95
2019-12-14 11:00:00 11.9 6 Oeste 37 Oeste 0.1 -- -- 95
2019-12-14 10:00:00 11.7 13 Oeste 41 Oeste 0.3 -- -- 95
2019-12-14 09:00:00 12.2 13 Oeste 40 Oeste 0 -- -- 95
2019-12-14 08:00:00 12 14 Oeste 49 Oeste 0.3 -- -- 95
2019-12-14 07:00:00 12.1 18 Oeste 41 Oeste 0.3 -- -- 95
2019-12-14 06:00:00 12.3 13 Oeste 40 Oeste 0.1 -- -- 95
2019-12-14 05:00:00 11.6 8 Oeste 41 Oeste 1.3 -- -- 95
2019-12-14 04:00:00 11.8 12 Oeste 45 Oeste 0.5 -- -- 95
2019-12-14 03:00:00 12.1 14 Oeste 33 Oeste 6 -- -- 95
2019-12-14 02:00:00 12 12 Oeste 39 Oeste 0.8 -- -- 95
2019-12-14 01:00:00 12 15 Oeste 41 Oeste 1.7 -- -- 95
2019-12-14 00:00:00 11.8 12 Oeste 39 Oeste 0.9 -- -- 95
2019-12-13 23:00:00 11.9 14 Oeste 42 Oeste 0.4 -- -- 95
2019-12-13 22:00:00 12 15 Oeste 42 Oeste 0 -- -- 94
2019-12-13 21:00:00 11.9 9 Oeste 30 Oeste 0 -- -- 94
2019-12-13 20:00:00 11.6 10 Oeste 41 Oeste 0 -- -- 94
2019-12-13 19:00:00 11.7 13 Oeste 36 Oeste 0 -- -- 94
2019-12-13 18:00:00 12 11 Oeste 36 Oeste 0.1 -- -- 95
2019-12-13 17:00:00 12.5 12 Oeste 33 Noroeste 0 -- -- 95
2019-12-13 16:00:00 12.5 9 Oeste 26 Oeste 0.5 -- -- 95
2019-12-13 15:00:00 13 5 Oeste 21 Oeste 0 -- -- 95
2019-12-13 14:00:00 13.2 7 Oeste 25 Oeste 0.1 -- -- 95
2019-12-13 13:00:00 13.2 10 Oeste 26 Oeste 0 -- -- 95
2019-12-13 12:00:00 13.5 8 Oeste 22 Oeste 0.1 -- -- 95
2019-12-13 11:00:00 13 8 Oeste 26 Oeste 0.1 -- -- 95
2019-12-13 10:00:00 12.8 8 Oeste 25 Oeste 0.3 -- -- 95
2019-12-13 09:00:00 12.6 10 Oeste 24 Oeste 0.2 -- -- 95
2019-12-13 08:00:00 12.6 9 Oeste 29 Oeste 0.2 -- -- 95
2019-12-13 07:00:00 12.5 9 Oeste 26 Oeste 0.2 -- -- 95
2019-12-13 06:00:00 12.6 9 Oeste 28 Oeste 0.2 -- -- 95
2019-12-13 05:00:00 12.4 9 Oeste 24 Oeste 0.2 -- -- 95
2019-12-13 04:00:00 12.5 13 Oeste 31 Oeste 0.2 -- -- 95
2019-12-13 03:00:00 12.4 8 Oeste 30 Sudoeste 0.2 -- -- 95
2019-12-13 02:00:00 12.5 10 Oeste 26 Oeste 0.3 -- -- 95
2019-12-13 01:00:00 12.7 11 Oeste 27 Sudoeste 0.5 -- -- 95
2019-12-13 00:00:00 12.8 10 Oeste 26 Oeste 0.2 -- -- 95
2019-12-12 23:00:00 12.8 10 Oeste 29 Oeste 0.1 -- -- 95
2019-12-12 22:00:00 12.8 9 Oeste 22 Oeste 0.1 -- -- 95
2019-12-12 21:00:00 13 7 Oeste 20 Oeste 0 -- -- 95
2019-12-12 20:00:00 12.9 4 Oeste 17 Oeste 0.2 -- -- 95
2019-12-12 19:00:00 12.9 5 Oeste 18 Oeste 0.7 -- -- 95
2019-12-12 18:00:00 12.9 6 Oeste 16 Oeste 0.8 -- -- 95
2019-12-12 17:00:00 12.8 6 Oeste 24 Oeste 0.7 -- -- 95
2019-12-12 16:00:00 12.8 8 Oeste 39 Sudoeste 1.3 -- -- 95
2019-12-12 15:00:00 12.6 11 Oeste 33 Oeste 1.9 -- -- 95
2019-12-12 14:00:00 12.2 12 Oeste 35 Oeste 3 -- -- 95
2019-12-12 13:00:00 11.5 15 Oeste 41 Noroeste 3.7 -- -- 95
2019-12-12 12:00:00 11.2 17 Oeste 43 Oeste 3.8 -- -- 95
2019-12-12 11:00:00 10.4 13 Oeste 39 Oeste 3.1 -- -- 95
2019-12-12 10:00:00 10.5 14 Oeste 41 Oeste 3 -- -- 95
2019-12-12 09:00:00 10.1 13 Oeste 36 Oeste 1.2 -- -- 95
2019-12-12 08:00:00 10.3 10 Oeste 37 Oeste 1.2 -- -- 95
2019-12-12 07:00:00 9.8 10 Oeste 25 Oeste 0.7 -- -- 95
2019-12-12 06:00:00 9.4 7 Oeste 19 Noroeste 1 -- -- 95
2019-12-12 05:00:00 9.7 7 Oeste 19 Oeste 2.6 -- -- 95
2019-12-12 04:00:00 9.7 6 Oeste 28 Oeste 2.6 -- -- 95
2019-12-12 03:00:00 9.7 7 Oeste 22 Oeste 0.4 -- -- 95
2019-12-12 02:00:00 9.8 9 Oeste 23 Oeste 0.3 -- -- 95
2019-12-12 01:00:00 9.7 9 Oeste 21 Oeste 0.1 -- -- 95
2019-12-12 00:00:00 9 3 Oeste 10 Oeste 0.2 -- -- 95
2019-12-11 23:00:00 9 3 Oeste 12 Oeste 0.4 -- -- 95
2019-12-11 22:00:00 8.9 3 Oeste 6 Oeste 0 -- -- 95
2019-12-11 21:00:00 8.9 0 Calma 7 Oeste 0.3 -- -- 95
2019-12-11 20:00:00 8.7 0 Calma 8 Oeste 0 -- -- 95
2019-12-11 19:00:00 8.5 0 Calma 5 Oeste 0 -- -- 94
2019-12-11 18:00:00 9.1 2 Oeste 9 Oeste 0 -- -- 93
2019-12-11 17:00:00 9.7 4 Oeste 22 Oeste 0.1 -- -- 93
2019-12-11 16:00:00 10.2 5 Oeste 22 Oeste 0.4 -- -- 93
2019-12-11 15:00:00 11.1 6 Oeste 23 Oeste 0 -- -- 86
2019-12-11 14:00:00 10.9 6 Oeste 16 Sudoeste 0.3 -- -- 93
2019-12-11 13:00:00 10 3 Oeste 8 Oeste 0 -- -- 93
2019-12-11 12:00:00 9.2 2 Oeste 6 Oeste 0 -- -- 95
2019-12-11 11:00:00 7.2 0 Calma 5 Sudoeste 0 -- -- 95
2019-12-11 10:00:00 5.8 0 Calma 3 Este 0 -- -- 95
2019-12-11 09:00:00 5.4 0 Calma 5 Este 0 -- -- 95
2019-12-11 08:00:00 6.7 0 Calma 4 Este 0 -- -- 95
2019-12-11 07:00:00 7.1 0 Calma 6 Nordeste 0 -- -- 94
2019-12-11 06:00:00 7.9 0 Calma 10 Nordeste 0 -- -- 95
2019-12-11 05:00:00 8.5 0 Calma 4 Norte 0.1 -- -- 95
2019-12-11 04:00:00 8.9 0 Calma 9 Sudeste 1.9 -- -- 95
2019-12-11 03:00:00 9.2 0 Calma 21 Nordeste 2.3 -- -- 95
2019-12-11 02:00:00 9.4 10 Nordeste 34 Nordeste 1.4 -- -- 95
2019-12-11 01:00:00 10.8 4 Oeste 28 Oeste 4.3 -- -- 95
2019-12-11 00:00:00 10.5 10 Oeste 29 Oeste 2.7 -- -- 95
2019-12-10 23:00:00 10 13 Oeste 31 Oeste 1.2 -- -- 95
2019-12-10 22:00:00 9.6 9 Oeste 26 Oeste 0.1 -- -- 95
2019-12-10 21:00:00 9.4 9 Oeste 28 Oeste 0.2 -- -- 94
2019-12-10 20:00:00 9.5 10 Oeste 23 Oeste 0 -- -- 91
2019-12-10 19:00:00 9.7 7 Oeste 22 Sudoeste 0 -- -- 89
2019-12-10 18:00:00 10.3 8 Oeste 23 Sudoeste 0 -- -- 86
2019-12-10 17:00:00 10.2 8 Oeste 22 Oeste 0 -- -- 83
2019-12-10 16:00:00 9.9 9 Oeste 25 Oeste 0 -- -- 86
2019-12-10 15:00:00 9.9 12 Oeste 25 Oeste 0 -- -- 88
2019-12-10 14:00:00 9.1 9 Oeste 21 Oeste 0 -- -- 96
2019-12-10 13:00:00 8.1 4 Oeste 9 Oeste 0 -- -- 96
2019-12-10 12:00:00 6 4 Este 15 Nordeste 0 -- -- 97
2019-12-10 11:00:00 4.3 12 Nordeste 18 Este 0 -- -- 97
2019-12-10 10:00:00 3.1 14 Nordeste 22 Este 0 -- -- 97
2019-12-10 09:00:00 2.9 13 Nordeste 23 Este 0 -- -- 97
2019-12-10 08:00:00 2.8 10 Nordeste 21 Este 0 -- -- 97
2019-12-10 07:00:00 2.9 10 Nordeste 22 Este 0 -- -- 97
2019-12-10 06:00:00 3.3 18 Este 26 Este 0 -- -- 97
2019-12-10 05:00:00 3.4 12 Este 21 Este 0 -- -- 97
2019-12-10 04:00:00 3.6 9 Nordeste 30 Este 0 -- -- 97
2019-12-10 03:00:00 4 15 Este 31 Este 0 -- -- 97
2019-12-10 02:00:00 4.2 20 Este 27 Nordeste 0 -- -- 96
2019-12-10 01:00:00 4.4 11 Nordeste 21 Este 0 -- -- 96
2019-12-10 00:00:00 4.8 14 Este 23 Este 0 -- -- 96
2019-12-09 23:00:00 5.7 12 Nordeste 19 Nordeste 0 -- -- 95
2019-12-09 22:00:00 5.4 9 Nordeste 12 Nordeste 0 -- -- 94
2019-12-09 21:00:00 6.2 8 Nordeste 10 Este 0 -- -- 93
2019-12-09 20:00:00 7.7 0 Calma 6 Nordeste 0 -- -- 92
2019-12-09 19:00:00 8.9 0 Calma 5 Este 0 -- -- 90
2019-12-09 18:00:00 9.5 3 Este 13 Este 0 -- -- 89
2019-12-09 17:00:00 10.6 13 Este 21 Este 0 -- -- 85
2019-12-09 16:00:00 11.6 6 Este 12 Este 0 -- -- 88
2019-12-09 15:00:00 10.6 8 Nordeste 14 Nordeste 0 -- -- 93
2019-12-09 14:00:00 10.5 6 Nordeste 13 Este 0 -- -- 93
2019-12-09 13:00:00 10.2 8 Este 13 Este 0 -- -- 95
2019-12-09 12:00:00 9.4 4 Este 16 Este 0 -- -- 96
2019-12-09 11:00:00 8 4 Nordeste 14 Este 0 -- -- 96
2019-12-09 10:00:00 6.9 8 Este 19 Este 0 -- -- 96
2019-12-09 09:00:00 6.5 14 Este 22 Nordeste 0 -- -- 96
2019-12-09 08:00:00 6.5 16 Este 22 Este 0 -- -- 96
2019-12-09 07:00:00 6.5 7 Este 19 Nordeste 0 -- -- 96
2019-12-09 06:00:00 6.4 15 Este 23 Este 0 -- -- 96
2019-12-09 05:00:00 6.4 13 Nordeste 21 Este 0 -- -- 96
2019-12-09 04:00:00 6.3 14 Este 24 Este 0 -- -- 96
2019-12-09 03:00:00 6.4 13 Nordeste 18 Este 0 -- -- 96
2019-12-09 02:00:00 6.6 9 Este 18 Nordeste 0 -- -- 95
2019-12-09 01:00:00 6.5 9 Nordeste 14 Este 0 -- -- 95
2019-12-09 00:00:00 6.4 5 Nordeste 14 Nordeste 0 -- -- 95
2019-12-08 23:00:00 7.1 8 Nordeste 13 Nordeste 0 -- -- 95
2019-12-08 22:00:00 7.2 6 Este 13 Nordeste 0 -- -- 94
2019-12-08 21:00:00 7.1 6 Nordeste 10 Nordeste 0 -- -- 93
2019-12-08 20:00:00 8 5 Nordeste 10 Este 0 -- -- 91
2019-12-08 19:00:00 9 6 Nordeste 13 Nordeste 0 -- -- 86
2019-12-08 18:00:00 10.7 2 Este 14 Nordeste 0 -- -- 81
2019-12-08 17:00:00 12.3 0 Calma 15 Este 0 -- -- 90
2019-12-08 16:00:00 12.6 0 Calma 23 Norte 0 -- -- 96
2019-12-08 15:00:00 12.8 0 Calma 7 Oeste 0.1 -- -- 96
2019-12-08 14:00:00 12.6 2 Oeste 13 Oeste 0.1 -- -- 96
2019-12-08 13:00:00 12.4 3 Noroeste 12 Oeste 0.1 -- -- 96
2019-12-08 12:00:00 12.4 3 Oeste 13 Oeste 0.3 -- -- 96
2019-12-08 11:00:00 12.2 5 Oeste 14 Oeste 0.3 -- -- 96
2019-12-08 10:00:00 12.1 4 Oeste 10 Oeste 0.6 -- -- 96
2019-12-08 09:00:00 11.9 5 Oeste 22 Oeste 0.6 -- -- 96
2019-12-08 08:00:00 11.9 6 Oeste 17 Sudoeste 0.2 -- -- 96
2019-12-08 07:00:00 11.8 5 Oeste 22 Oeste 0.6 -- -- 96
2019-12-08 06:00:00 11.8 6 Oeste 14 Oeste 0.2 -- -- 96
2019-12-08 05:00:00 11.8 6 Oeste 14 Oeste 0.2 -- -- 96
2019-12-08 04:00:00 11.8 4 Oeste 19 Oeste 0.5 -- -- 96
2019-12-08 03:00:00 11.9 6 Oeste 18 Oeste 0.4 -- -- 96
2019-12-08 02:00:00 11.6 5 Oeste 13 Oeste 0.5 -- -- 96
2019-12-08 01:00:00 11.6 6 Oeste 19 Oeste 0.3 -- -- 96
2019-12-08 00:00:00 11.6 8 Oeste 17 Oeste 0.1 -- -- 96
2019-12-07 23:00:00 11.5 7 Oeste 16 Oeste 0.1 -- -- 96
2019-12-07 22:00:00 11.5 6 Oeste 15 Oeste 0.2 -- -- 96
2019-12-07 21:00:00 11.5 5 Oeste 16 Oeste 0.3 -- -- 96
2019-12-07 20:00:00 11.4 6 Oeste 15 Oeste 0.1 -- -- 96
2019-12-07 19:00:00 11.3 5 Oeste 12 Oeste 0.1 -- -- 96
2019-12-07 18:00:00 11.3 4 Noroeste 10 Noroeste 0 -- -- 96
2019-12-07 17:00:00 11.2 3 Noroeste 10 Oeste 0.1 -- -- 96
2019-12-07 16:00:00 11.4 4 Oeste 14 Oeste 0 -- -- 96
2019-12-07 15:00:00 11.3 5 Oeste 15 Oeste 0 -- -- 96
2019-12-07 14:00:00 11.2 0 Calma 7 Nordeste 0 -- -- 96
2019-12-07 13:00:00 9.9 6 Nordeste 13 Este 0 -- -- 96
2019-12-07 12:00:00 9.3 10 Nordeste 14 Este 0.1 -- -- 96
2019-12-07 11:00:00 8.5 8 Nordeste 13 Este 0 -- -- 96
2019-12-07 10:00:00 7.5 9 Nordeste 13 Nordeste 0 -- -- 96
2019-12-07 09:00:00 6.9 10 Nordeste 14 Nordeste 0 -- -- 96
2019-12-07 08:00:00 6.7 10 Nordeste 18 Este 0 -- -- 96
2019-12-07 07:00:00 6.5 11 Nordeste 20 Nordeste 0 -- -- 96
2019-12-07 06:00:00 6.4 13 Nordeste 21 Nordeste 0 -- -- 96
2019-12-07 05:00:00 6.1 15 Nordeste 21 Nordeste 0 -- -- 96
2019-12-07 04:00:00 6.2 8 Este 17 Este 0 -- -- 96
2019-12-07 03:00:00 6.2 12 Nordeste 16 Nordeste 0 -- -- 96
2019-12-07 02:00:00 6.4 7 Este 14 Este 0 -- -- 96
2019-12-07 01:00:00 6.6 8 Nordeste 15 Este 0 -- -- 96
2019-12-07 00:00:00 6.8 14 Nordeste 19 Este 0 -- -- 95
2019-12-06 23:00:00 6.8 9 Este 17 Este 0 -- -- 95
2019-12-06 22:00:00 7.9 9 Nordeste 14 Nordeste 0 -- -- 94
2019-12-06 21:00:00 8.2 6 Nordeste 10 Nordeste 0 -- -- 92
2019-12-06 20:00:00 9.3 0 Calma 3 Norte 0 -- -- 90
2019-12-06 19:00:00 10.3 0 Calma 3 Este 0 -- -- 86
2019-12-06 18:00:00 11.1 0 Calma 4 Este 0 -- -- 79
2019-12-06 17:00:00 12.6 0 Calma 3 Sudeste 0 -- -- 73
2019-12-06 16:00:00 13.3 0 Calma 7 Este 0 -- -- 69
2019-12-06 15:00:00 14.1 5 Este 10 Este 0 -- -- 66
2019-12-06 14:00:00 12.1 6 Este 17 Nordeste 0 -- -- 73
2019-12-06 13:00:00 10.5 6 Este 12 Este 0 -- -- 82
2019-12-06 12:00:00 7.9 9 Nordeste 19 Este 0 -- -- 95
2019-12-06 11:00:00 6.7 13 Este 22 Este 0 -- -- 95
2019-12-06 10:00:00 5.8 13 Nordeste 19 Este 0 -- -- 96
2019-12-06 09:00:00 5.3 10 Nordeste 18 Nordeste 0 -- -- 96
2019-12-06 08:00:00 5.8 9 Nordeste 24 Este 0 -- -- 96
2019-12-06 07:00:00 5.5 13 Este 21 Nordeste 0 -- -- 95
2019-12-06 06:00:00 5.4 11 Este 17 Nordeste 0 -- -- 95
2019-12-06 05:00:00 5.7 11 Este 22 Este 0 -- -- 95
2019-12-06 04:00:00 5.6 13 Este 21 Este 0 -- -- 95
2019-12-06 03:00:00 6.1 10 Este 17 Este 0 -- -- 95
2019-12-06 02:00:00 6.3 10 Nordeste 16 Nordeste 0 -- -- 94
2019-12-06 01:00:00 6.8 6 Nordeste 22 Este 0 -- -- 94
2019-12-06 00:00:00 7.2 8 Nordeste 15 Nordeste 0 -- -- 94
2019-12-05 23:00:00 7.4 2 Norte 10 Nordeste 0 -- -- 92
2019-12-05 22:00:00 8.1 6 Nordeste 14 Este 0 -- -- 91
2019-12-05 21:00:00 9 5 Este 14 Este 0 -- -- 88
2019-12-05 20:00:00 10 8 Este 16 Sudeste 0 -- -- 85
2019-12-05 19:00:00 10.5 5 Este 32 Nordeste 0 -- -- 79
2019-12-05 18:00:00 12 17 Nordeste 31 Este 0 -- -- 72
2019-12-05 17:00:00 13.1 13 Nordeste 31 Nordeste 0 -- -- 66
2019-12-05 16:00:00 14.9 13 Este 32 Este 0 -- -- 60
2019-12-05 15:00:00 15.2 14 Este 33 Nordeste 0 -- -- 60
2019-12-05 14:00:00 14.9 15 Este 37 Este 0 -- -- 60
2019-12-05 13:00:00 14.5 17 Este 35 Este 0 -- -- 66
2019-12-05 12:00:00 11.7 12 Este 29 Este 0 -- -- 75
2019-12-05 11:00:00 11.5 12 Este 27 Nordeste 0 -- -- 75
2019-12-05 10:00:00 8.6 8 Nordeste 24 Este 0 -- -- 91
2019-12-05 09:00:00 5.9 11 Este 21 Este 0 -- -- 92
2019-12-05 08:00:00 5.1 5 Nordeste 18 Este 0 -- -- 92
2019-12-05 07:00:00 5 8 Nordeste 19 Nordeste 0 -- -- 92
2019-12-05 06:00:00 5 12 Nordeste 24 Este 0 -- -- 91
2019-12-05 05:00:00 5.5 13 Nordeste 24 Este 0 -- -- 91
2019-12-05 04:00:00 5.3 14 Este 26 Este 0 -- -- 90
2019-12-05 03:00:00 5.8 11 Este 29 Este 0 -- -- 86
2019-12-05 02:00:00 6.1 9 Este 24 Este 0 -- -- 86
2019-12-05 01:00:00 5.5 10 Este 22 Este 0 -- -- 83
2019-12-05 00:00:00 5.7 13 Este 32 Este 0 -- -- 78
2019-12-04 23:00:00 6.3 16 Este 33 Este 0 -- -- 76
2019-12-04 22:00:00 6.7 9 Este 26 Sudeste 0 -- -- 77
2019-12-04 21:00:00 6.7 8 Este 26 Nordeste 0 -- -- 75
2019-12-04 20:00:00 8.2 7 Este 25 Nordeste 0 -- -- 67
2019-12-04 19:00:00 8.7 9 Este 26 Este 0 -- -- 67
2019-12-04 18:00:00 8.9 8 Este 30 Este 0 -- -- 61
2019-12-04 17:00:00 10.2 7 Este 24 Este 0 -- -- 59
2019-12-04 16:00:00 12 4 Este 9 Este 0 -- -- 60
2019-12-04 15:00:00 10.6 6 Este 15 Este 0 -- -- 61
2019-12-04 14:00:00 10.1 8 Este 15 Este 0 -- -- 64
2019-12-04 13:00:00 7.6 9 Este 17 Este 0 -- -- 83
2019-12-04 12:00:00 4.8 7 Este 18 Nordeste 0 -- -- 97
2019-12-04 11:00:00 0.8 11 Este 22 Nordeste 0 -- -- 97
2019-12-04 10:00:00 -0.5 14 Este 24 Este 0 -- -- 97
2019-12-04 09:00:00 -1.1 17 Nordeste 22 Nordeste 0 -- -- 97
2019-12-04 08:00:00 -1 12 Este 22 Nordeste 0 -- -- 97
2019-12-04 07:00:00 -0.8 10 Este 21 Nordeste 0 -- -- 97
2019-12-04 06:00:00 -0.6 9 Este 22 Nordeste 0 -- -- 97
2019-12-04 05:00:00 -0.3 11 Este 22 Este 0 -- -- 97
2019-12-04 04:00:00 -0.3 19 Nordeste 26 Nordeste 0 -- -- 97
2019-12-04 03:00:00 0.4 14 Nordeste 24 Nordeste 0 -- -- 96
2019-12-04 02:00:00 0.9 8 Nordeste 24 Este 0 -- -- 96
2019-12-04 01:00:00 1.3 7 Nordeste 24 Este 0 -- -- 95
2019-12-04 00:00:00 1.7 15 Este 24 Este 0 -- -- 95
2019-12-03 23:00:00 2.6 14 Nordeste 20 Nordeste 0 -- -- 94
2019-12-03 22:00:00 3.5 11 Nordeste 17 Este 0 -- -- 92
2019-12-03 21:00:00 4.1 9 Nordeste 15 Nordeste 0 -- -- 91
2019-12-03 20:00:00 4.9 8 Nordeste 15 Este 0 -- -- 86
2019-12-03 19:00:00 6 10 Nordeste 15 Nordeste 0 -- -- 81
2019-12-03 18:00:00 8 8 Este 13 Este 0 -- -- 67
2019-12-03 17:00:00 10 8 Este 19 Este 0 -- -- 57
2019-12-03 16:00:00 11.6 10 Este 20 Este 0 -- -- 50
2019-12-03 15:00:00 11.8 14 Este 21 Este 0 -- -- 48
2019-12-03 14:00:00 11.1 15 Este 26 Este 0 -- -- 53
2019-12-03 13:00:00 10.1 18 Este 27 Sudeste 0 -- -- 59
2019-12-03 12:00:00 8.6 20 Este 58 Este 0 -- -- 63
2019-12-03 11:00:00 6.6 10 Este 22 Este 0 -- -- 74
2019-12-03 10:00:00 4.4 10 Este 27 Este 0 -- -- 85
2019-12-03 09:00:00 2.1 10 Este 24 Este 0 -- -- 90
2019-12-03 08:00:00 2.4 12 Este 30 Este 0 -- -- 89
2019-12-03 07:00:00 2.7 16 Este 28 Este 0 -- -- 89
2019-12-03 06:00:00 2.9 17 Este 28 Este 0 -- -- 89
2019-12-03 05:00:00 2.6 12 Este 22 Este 0 -- -- 89
2019-12-03 04:00:00 3.3 6 Este 28 Este 0 -- -- 87
2019-12-03 03:00:00 3.8 17 Este 26 Este 0 -- -- 88
2019-12-03 02:00:00 4.4 6 Este 22 Este 0 -- -- 81
2019-12-03 01:00:00 5.5 14 Este 31 Este 0 -- -- 78
2019-12-03 00:00:00 5.8 18 Este 30 Este 0 -- -- 78
2019-12-02 23:00:00 6.5 19 Este 33 Este 0 -- -- 75
2019-12-02 22:00:00 6.9 17 Este 39 Este 0 -- -- 73
2019-12-02 21:00:00 7.5 30 Este 42 Este 0 -- -- 72
2019-12-02 20:00:00 7.9 18 Este 30 Este 0 -- -- 71
2019-12-02 19:00:00 8.6 15 Este 40 Este 0 -- -- 66
2019-12-02 18:00:00 9 13 Este 39 Este 0 -- -- 63
2019-12-02 17:00:00 10 18 Este 47 Este 0 -- -- 59
2019-12-02 16:00:00 11.4 23 Este 54 Este 0 -- -- 56
2019-12-02 15:00:00 11.3 15 Este 49 Este 0 -- -- 58
2019-12-02 14:00:00 12.4 15 Este 48 Este 0 -- -- 59
2019-12-02 13:00:00 10.6 9 Este 34 Nordeste 0 -- -- 72
2019-12-02 12:00:00 10.2 11 Este 35 Nordeste 0 -- -- 77
2019-12-02 11:00:00 9.8 6 Este 40 Este 0 -- -- 79
2019-12-02 10:00:00 9.6 17 Este 42 Este 0 -- -- 80
2019-12-02 09:00:00 9.4 12 Nordeste 29 Nordeste 0 -- -- 83
2019-12-02 08:00:00 9.2 11 Este 26 Este 0 -- -- 84
2019-12-02 07:00:00 9 10 Este 30 Nordeste 0 -- -- 84
2019-12-02 06:00:00 8.7 8 Este 28 Este 0 -- -- 83
2019-12-02 05:00:00 8.3 7 Este 23 Este 0 -- -- 83
2019-12-02 04:00:00 8.3 11 Este 30 Este 0 -- -- 81
2019-12-02 03:00:00 8.2 14 Nordeste 37 Este 0 -- -- 78
2019-12-02 02:00:00 6.8 6 Este 25 Este 0 -- -- 84
2019-12-02 01:00:00 7.5 8 Este 26 Este 0 -- -- 84
2019-12-02 00:00:00 7.6 8 Este 29 Este 0 -- -- 87
2019-12-01 23:00:00 8.9 13 Este 30 Nordeste 0 -- -- 80
2019-12-01 22:00:00 8.4 10 Nordeste 37 Este 0 -- -- 82
2019-12-01 21:00:00 8.8 15 Este 49 Este 0 -- -- 77
2019-12-01 20:00:00 9.2 17 Este 40 Nordeste 0 -- -- 75
2019-12-01 19:00:00 9.4 13 Este 37 Este 0 -- -- 82
2019-12-01 18:00:00 9.8 13 Nordeste 37 Nordeste 0 -- -- 83
2019-12-01 17:00:00 10.5 15 Nordeste 46 Este 0 -- -- 82
2019-12-01 16:00:00 12.1 17 Nordeste 44 Nordeste 0 -- -- 70
2019-12-01 15:00:00 12.3 15 Este 44 Este 0 -- -- 70
2019-12-01 14:00:00 12.1 17 Este 41 Este 0 -- -- 73
2019-12-01 13:00:00 11.6 15 Este 43 Este 0 -- -- 77
2019-12-01 12:00:00 11.9 18 Este 40 Este 0 -- -- 79
2019-12-01 11:00:00 10.8 13 Nordeste 30 Nordeste 0 -- -- 86
2019-12-01 10:00:00 9.4 6 Este 27 Nordeste 0 -- -- 92
2019-12-01 09:00:00 9 13 Nordeste 30 Nordeste 0 -- -- 94
2019-12-01 08:00:00 8.3 6 Este 23 Este 0.1 -- -- 94
2019-12-01 07:00:00 9 13 Este 27 Este 0 -- -- 94
2019-12-01 06:00:00 9.5 17 Este 23 Este 0 -- -- 94
2019-12-01 05:00:00 9.9 8 Este 15 Este 0 -- -- 94
2019-12-01 04:00:00 10.1 6 Oeste 28 Sudoeste 1.2 -- -- 94
2019-12-01 03:00:00 10 12 Sudoeste 28 Sur 0.4 -- -- 95
2019-12-01 02:00:00 9.5 8 Sudoeste 23 Oeste 1.3 -- -- 94
2019-12-01 01:00:00 9.5 8 Oeste 41 Oeste 6.6 -- -- 94
2019-12-01 00:00:00 9.8 7 Sudoeste 28 Sudoeste 3.6 -- -- 94
2019-11-30 23:00:00 9.3 12 Oeste 45 Oeste 5.7 -- -- 93
2019-11-30 22:00:00 10.2 9 Oeste 31 Oeste 0.3 -- -- 92
2019-11-30 21:00:00 10.1 5 Oeste 19 Oeste 0 -- -- 92
2019-11-30 20:00:00 10.2 10 Oeste 46 Oeste 0.6 -- -- 92
2019-11-30 19:00:00 10.8 6 Oeste 22 Oeste 0.1 -- -- 91
2019-11-30 18:00:00 11.4 9 Oeste 30 Oeste 0 -- -- 85
2019-11-30 17:00:00 12 12 Oeste 31 Oeste 0 -- -- 80
2019-11-30 16:00:00 13 10 Oeste 32 Oeste 0 -- -- 77
2019-11-30 15:00:00 12.5 14 Oeste 33 Oeste 0 -- -- 82
2019-11-30 14:00:00 12.2 13 Oeste 34 Oeste 0.1 -- -- 84
2019-11-30 13:00:00 12.8 7 Oeste 33 Oeste 0 -- -- 81
2019-11-30 12:00:00 13 13 Oeste 31 Oeste 0 -- -- 88
2019-11-30 11:00:00 11.7 6 Oeste 17 Oeste 0.1 -- -- 95
2019-11-30 10:00:00 10.8 4 Oeste 17 Oeste 0 -- -- 95
2019-11-30 09:00:00 10.4 6 Oeste 22 Oeste 0.6 -- -- 95
2019-11-30 08:00:00 11.4 7 Oeste 17 Oeste 0.4 -- -- 95
2019-11-30 07:00:00 11.5 7 Oeste 22 Sudoeste 0 -- -- 95
2019-11-30 06:00:00 12 10 Oeste 31 Sudoeste 0 -- -- 95
2019-11-30 05:00:00 13.9 13 Oeste 55 Oeste 1.3 -- -- 95
2019-11-30 04:00:00 14.3 18 Oeste 45 Oeste 0.7 -- -- 95
2019-11-30 03:00:00 14.5 19 Oeste 52 Oeste 2.6 -- -- 95
2019-11-30 02:00:00 14.6 22 Oeste 56 Oeste 1 -- -- 95
2019-11-30 01:00:00 14.7 19 Oeste 50 Oeste 1.7 -- -- 95
2019-11-30 00:00:00 14.7 18 Oeste 44 Oeste 0.9 -- -- 95
2019-11-29 23:00:00 14.2 9 Oeste 25 Sudoeste 1.1 -- -- 95
2019-11-29 22:00:00 13.2 4 Oeste 12 Oeste 1.2 -- -- 94
2019-11-29 21:00:00 12.7 0 Calma 7 Oeste 0 -- -- 94
2019-11-29 20:00:00 12.6 0 Calma 3 Noroeste 0 -- -- 94
2019-11-29 19:00:00 12.3 0 Calma 7 Oeste 0 -- -- 92
2019-11-29 18:00:00 12.9 3 Oeste 9 Oeste 0 -- -- 91
2019-11-29 17:00:00 14 2 Noroeste 9 Oeste 0 -- -- 89
2019-11-29 16:00:00 15 2 Noroeste 7 Oeste 0 -- -- 87
2019-11-29 15:00:00 13.5 0 Calma 9 Este 0 -- -- 95
2019-11-29 14:00:00 12.1 5 Este 8 Este 0 -- -- 95
2019-11-29 13:00:00 12 4 Este 15 Este 0 -- -- 95
2019-11-29 12:00:00 11.3 11 Este 16 Este 0 -- -- 96
2019-11-29 11:00:00 10.7 5 Este 9 Nordeste 0 -- -- 96
2019-11-29 10:00:00 10.1 3 Sudeste 9 Este 0 -- -- 96
2019-11-29 09:00:00 10.2 5 Nordeste 10 Nordeste 0 -- -- 96
2019-11-29 08:00:00 9.9 0 Calma 9 Este 0 -- -- 96
2019-11-29 07:00:00 10.2 5 Nordeste 15 Nordeste 0 -- -- 96
2019-11-29 06:00:00 9.9 5 Nordeste 10 Nordeste 0 -- -- 96
2019-11-29 05:00:00 10.1 9 Este 14 Este 0 -- -- 95
2019-11-29 04:00:00 10.3 0 Calma 7 Nordeste 0 -- -- 95
2019-11-29 03:00:00 10.3 0 Calma 10 Nordeste 0 -- -- 95
2019-11-29 02:00:00 10.6 6 Este 12 Este 0 -- -- 95
2019-11-29 01:00:00 11 5 Nordeste 8 Nordeste 0.1 -- -- 95
2019-11-29 00:00:00 11.4 2 Nordeste 7 Este 0 -- -- 95
2019-11-28 23:00:00 12.2 0 Calma 7 Este 0 -- -- 95
2019-11-28 22:00:00 12.1 0 Calma 4 Noroeste 0 -- -- 95
2019-11-28 21:00:00 13 0 Calma 4 Noroeste 0 -- -- 95
2019-11-28 20:00:00 13.3 2 Oeste 15 Oeste 0 -- -- 95
2019-11-28 19:00:00 13.7 3 Oeste 39 Oeste 0.1 -- -- 95
2019-11-28 18:00:00 14.1 17 Oeste 45 Oeste 0.7 -- -- 95
2019-11-28 17:00:00 14.3 19 Oeste 60 Oeste 2.4 -- -- 95
2019-11-28 16:00:00 14.1 26 Oeste 59 Oeste 2.9 -- -- 95
2019-11-28 15:00:00 13.2 15 Oeste 45 Oeste 3 -- -- 95
2019-11-28 14:00:00 12.4 13 Oeste 42 Oeste 2.3 -- -- 95
2019-11-28 13:00:00 12.4 10 Oeste 28 Oeste 2.4 -- -- 95
2019-11-28 12:00:00 12.4 6 Oeste 19 Oeste 0.6 -- -- 95
2019-11-28 11:00:00 12.2 9 Oeste 21 Oeste 0 -- -- 95
2019-11-28 10:00:00 11.9 5 Oeste 13 Oeste 0 -- -- 95
2019-11-28 09:00:00 11.6 4 Oeste 10 Oeste 0 -- -- 95
2019-11-28 08:00:00 11.5 3 Oeste 8 Oeste 0 -- -- 95
2019-11-28 07:00:00 11.4 2 Noroeste 10 Oeste 0 -- -- 95
2019-11-28 06:00:00 11.4 4 Oeste 14 Oeste 0 -- -- 95
2019-11-28 05:00:00 11.5 3 Oeste 8 Oeste 0.3 -- -- 95
2019-11-28 04:00:00 11.5 3 Oeste 7 Oeste 0.1 -- -- 95
2019-11-28 03:00:00 11.6 0 Calma 8 Oeste 0.4 -- -- 95
2019-11-28 02:00:00 12 2 Oeste 15 Oeste 0.4 -- -- 95
2019-11-28 01:00:00 12.2 5 Oeste 16 Oeste 0.4 -- -- 95
2019-11-28 00:00:00 12.3 7 Oeste 28 Oeste 0.3 -- -- 95
2019-11-27 23:00:00 12.6 8 Oeste 37 Oeste 4.2 -- -- 95
2019-11-27 22:00:00 12.4 14 Oeste 36 Oeste 0.9 -- -- 95
2019-11-27 21:00:00 12.1 11 Oeste 35 Oeste 1.5 -- -- 95
2019-11-27 20:00:00 11.8 5 Oeste 18 Oeste 0.3 -- -- 95
2019-11-27 19:00:00 11.5 6 Oeste 33 Oeste 0.6 -- -- 95
2019-11-27 18:00:00 11.4 14 Oeste 34 Oeste 0 -- -- 95
2019-11-27 17:00:00 11.9 17 Oeste 44 Oeste 0.9 -- -- 95
2019-11-27 16:00:00 12.2 16 Oeste 40 Oeste 1.6 -- -- 95
2019-11-27 15:00:00 12.2 11 Oeste 32 Oeste 0.2 -- -- 95
2019-11-27 14:00:00 12.1 15 Oeste 33 Oeste 0 -- -- 95
2019-11-27 06:00:00 11.2 8 Oeste 21 Oeste 0 -- -- 95
2019-11-27 05:00:00 11.8 7 Oeste -- -- -- -- -- 94
2019-11-27 04:00:00 11.5 10 Sudoeste 26 Sudoeste 0 -- -- 95
2019-11-27 03:00:00 11.4 8 Oeste 23 Oeste 0.1 -- -- 95
2019-11-27 02:00:00 11.5 8 Oeste 22 Oeste 0 -- -- 95
2019-11-27 01:00:00 11.3 11 Oeste 41 Oeste 1.3 -- -- 94
2019-11-27 00:00:00 11.5 17 Oeste 46 Oeste 0.4 -- -- 94
2019-11-26 23:00:00 11.2 18 Oeste 43 Oeste 0.4 -- -- 94
2019-11-26 22:00:00 11.1 14 Oeste 36 Oeste 0.3 -- -- 94
2019-11-26 21:00:00 11 14 Oeste 35 Oeste 0 -- -- 91
2019-11-26 20:00:00 10.4 13 Oeste 41 Oeste 0.3 -- -- 94
2019-11-26 19:00:00 11.4 11 Oeste 49 Oeste 2.7 -- -- 94
2019-11-26 18:00:00 12.1 22 Oeste 58 Oeste 0.4 -- -- 93
2019-11-26 17:00:00 13.3 23 Oeste 82 Oeste 0.4 -- -- 89
2019-11-26 16:00:00 14.3 27 Oeste 79 Oeste 0 -- -- 85
2019-11-26 15:00:00 14.6 27 Oeste 67 Noroeste 0 -- -- 85
2019-11-26 14:00:00 14.9 28 Oeste 61 Oeste 0 -- -- 86
2019-11-26 13:00:00 15 20 Oeste 59 Sudoeste 0 -- -- 84
2019-11-26 12:00:00 15.1 19 Oeste 50 Oeste 0 -- -- 88
2019-11-26 11:00:00 14.5 18 Oeste 45 Oeste 0 -- -- 91
2019-11-26 10:00:00 14.2 16 Oeste 45 Oeste 0 -- -- 93
2019-11-26 09:00:00 14 17 Oeste 46 Oeste 0 -- -- 94
2019-11-26 08:00:00 13.8 17 Oeste 46 Oeste 0 -- -- 94
2019-11-26 07:00:00 14.1 19 Oeste 53 Oeste 0 -- -- 94
2019-11-26 06:00:00 14.1 18 Oeste 48 Oeste 0 -- -- 94
2019-11-26 05:00:00 14.3 16 Oeste 45 Oeste 0.1 -- -- 94
2019-11-26 04:00:00 14.7 21 Oeste 60 Oeste 0.1 -- -- 94
2019-11-26 03:00:00 15.1 20 Oeste 53 Oeste 0.2 -- -- 94
2019-11-26 02:00:00 15 21 Oeste 53 Oeste 0.7 -- -- 94
2019-11-26 01:00:00 13.9 12 Oeste 39 Sudoeste 1.2 -- -- 94
2019-11-26 00:00:00 13.5 10 Sudoeste 41 Sudoeste 0.1 -- -- 94
2019-11-25 23:00:00 13.1 3 Oeste 21 Noroeste 0.7 -- -- 94
2019-11-25 22:00:00 13 7 Oeste 27 Sudoeste 0.3 -- -- 94
2019-11-25 21:00:00 13.2 11 Sudoeste 31 Sudoeste 0 -- -- 90
2019-11-25 20:00:00 13.1 9 Sudoeste 32 Sudoeste 0 -- -- 89
2019-11-25 19:00:00 13 9 Oeste 26 Oeste 0 -- -- 89
2019-11-25 18:00:00 13.1 9 Oeste 29 Oeste 0 -- -- 86
2019-11-25 17:00:00 13.2 9 Oeste 25 Oeste 0 -- -- 85
2019-11-25 16:00:00 13.7 8 Oeste 35 Oeste 0 -- -- 85
2019-11-25 15:00:00 13.8 10 Oeste 28 Oeste 0 -- -- 85
2019-11-25 14:00:00 13.3 5 Oeste 27 Sudoeste 0 -- -- 92
2019-11-25 13:00:00 13.4 8 Oeste 23 Sur 0 -- -- 94
2019-11-25 12:00:00 12.7 7 Oeste 16 Oeste 0 -- -- 95
2019-11-25 11:00:00 12 4 Oeste 15 Oeste 0 -- -- 95
2019-11-25 10:00:00 11.8 4 Oeste 13 Oeste 0 -- -- 95
2019-11-25 09:00:00 11.4 3 Noroeste 14 Oeste 0 -- -- 95
2019-11-25 08:00:00 11.8 8 Oeste 21 Oeste 0.1 -- -- 95
2019-11-25 07:00:00 12 9 Oeste 22 Oeste 0 -- -- 95
2019-11-25 06:00:00 12.7 8 Oeste 33 Oeste 3.4 -- -- 95
2019-11-25 05:00:00 12.8 13 Oeste 38 Oeste 0 -- -- 95
2019-11-25 04:00:00 12.5 10 Oeste 30 Oeste 0.2 -- -- 95
2019-11-25 03:00:00 12.9 11 Oeste 29 Oeste 0.1 -- -- 95
2019-11-25 02:00:00 13.1 11 Oeste -- -- -- -- -- 95
2019-11-25 01:00:00 13.1 13 Oeste 33 Oeste 0 -- -- 95
2019-11-25 00:00:00 13.2 8 Oeste 48 Sudoeste 0.5 -- -- 95
2019-11-24 23:00:00 14.2 13 Oeste 42 Oeste 0.2 -- -- 95
2019-11-24 22:00:00 14.3 17 Oeste 42 Oeste 0.7 -- -- 95
2019-11-24 21:00:00 14.2 16 Oeste 37 Sudoeste 1 -- -- 95
2019-11-24 20:00:00 13.4 9 Oeste 42 Oeste 0.6 -- -- 95
2019-11-24 19:00:00 13.6 17 Oeste 54 Oeste 0.2 -- -- 95
2019-11-24 18:00:00 13.9 24 Oeste 66 Oeste 0.5 -- -- 95
2019-11-24 17:00:00 12.6 11 Sudoeste 37 Oeste 4.7 -- -- 95
2019-11-24 16:00:00 11.8 8 Oeste 40 Sudoeste 1.7 -- -- 95
2019-11-24 15:00:00 11.8 18 Sudoeste 50 Sudoeste 0.5 -- -- 95
2019-11-24 14:00:00 11 9 Sudoeste 41 Sudoeste 0.7 -- -- 95
2019-11-24 13:00:00 10.3 12 Oeste 33 Oeste 1.7 -- -- 95
2019-11-24 12:00:00 10.3 10 Oeste 23 Oeste 0 -- -- 95
2019-11-24 11:00:00 10 9 Oeste 23 Sudoeste 0.2 -- -- 95
2019-11-24 10:00:00 9.4 6 Oeste 19 Oeste 0 -- -- 95
2019-11-24 09:00:00 8.8 4 Noroeste 16 Sudoeste 0 -- -- 95
2019-11-24 08:00:00 8.2 3 Noroeste 10 Oeste 0 -- -- 95
2019-11-24 07:00:00 6.9 0 Calma 6 Oeste 0 -- -- 95
2019-11-24 06:00:00 6.6 2 Noroeste 12 Nordeste 0 -- -- 95
2019-11-24 05:00:00 5.9 8 Nordeste 12 Nordeste 0 -- -- 95
2019-11-24 04:00:00 5.6 7 Nordeste 9 Nordeste 0 -- -- 95
2019-11-24 03:00:00 6.3 0 Calma 2 Noroeste 0 -- -- 95
2019-11-24 02:00:00 7.1 0 Calma 5 Oeste 0 -- -- 95
2019-11-24 01:00:00 7.3 2 Oeste 6 Oeste 0 -- -- 95
2019-11-24 00:00:00 7.3 0 Calma 5 Oeste 0 -- -- 94
2019-11-23 23:00:00 7.4 0 Calma 4 Oeste 0 -- -- 93
2019-11-23 22:00:00 8.3 0 Calma 4 Oeste 0 -- -- 89
2019-11-23 21:00:00 8.9 0 Calma 5 Este 0 -- -- 88
2019-11-23 20:00:00 9.2 0 Calma 8 Sudoeste 0 -- -- 89
2019-11-23 19:00:00 9.4 2 Oeste 10 Sudoeste 0 -- -- 88
2019-11-23 18:00:00 10.5 0 Calma 13 Oeste 0 -- -- 87
2019-11-23 17:00:00 11.3 4 Noroeste 16 Oeste 0 -- -- 87
2019-11-23 16:00:00 11.9 5 Oeste 13 Oeste 0 -- -- 86
2019-11-23 15:00:00 11 0 Calma 14 Nordeste 0.4 -- -- 85
2019-11-23 14:00:00 13.4 3 Oeste 17 Oeste 0.7 -- -- 83
2019-11-23 13:00:00 12.4 4 Oeste 15 Oeste 0 -- -- 86
2019-11-23 12:00:00 11.3 4 Oeste 12 Oeste 0 -- -- 91
2019-11-23 11:00:00 10.2 0 Calma 8 Sudoeste 0 -- -- 94
2019-11-23 10:00:00 8.6 0 Calma 8 Sudoeste 0 -- -- 95
2019-11-23 09:00:00 7.2 0 Calma 6 Oeste 0 -- -- 95
2019-11-23 08:00:00 7.4 2 Oeste 9 Sudoeste 0.1 -- -- 95
2019-11-23 07:00:00 7.4 3 Sudoeste 10 Sudoeste 0 -- -- 95
2019-11-23 06:00:00 7.7 4 Sudoeste 11 Sudoeste 0.4 -- -- 95
2019-11-23 05:00:00 7.4 2 Oeste 9 Sudoeste 0 -- -- 95
2019-11-23 04:00:00 7.5 2 Sudoeste 8 Sur 0.1 -- -- 95
2019-11-23 03:00:00 7.9 3 Sudoeste 13 Sudoeste 0.4 -- -- 95
2019-11-23 02:00:00 7.8 2 Oeste 15 Sudoeste 0 -- -- 95
2019-11-23 01:00:00 8.4 3 Sudoeste 12 Nordeste 1.2 -- -- 94
2019-11-23 00:00:00 8.4 3 Oeste 11 Oeste 0.2 -- -- 95
2019-11-22 23:00:00 8.5 4 Oeste 18 Sudoeste 0.8 -- -- 94
2019-11-22 22:00:00 8.7 5 Oeste 30 Oeste 0.7 -- -- 94
2019-11-22 21:00:00 9.3 6 Oeste 29 Oeste 1.3 -- -- 94
2019-11-22 20:00:00 9.7 9 Oeste 31 Oeste 1 -- -- 94
2019-11-22 19:00:00 10.2 15 Oeste 45 Oeste 0.4 -- -- 94
2019-11-22 18:00:00 10.5 14 Oeste 54 Oeste 0.5 -- -- 94
2019-11-22 17:00:00 10.9 14 Oeste 49 Oeste 2.4 -- -- 94
2019-11-22 16:00:00 11.1 17 Oeste 42 Oeste 1.6 -- -- 94
2019-11-22 15:00:00 11.5 17 Oeste 54 Oeste 1.8 -- -- 93
2019-11-22 14:00:00 12.7 12 Oeste 39 Oeste 3.9 -- -- 93
2019-11-22 13:00:00 12.7 13 Oeste 36 Oeste 0.5 -- -- 93
2019-11-22 12:00:00 12.2 12 Oeste 37 Oeste 0 -- -- 93
2019-11-22 11:00:00 11.7 11 Oeste 69 Oeste 0.8 -- -- 94
2019-11-22 10:00:00 13.3 22 Oeste 64 Oeste 1 -- -- 94
2019-11-22 09:00:00 13.5 21 Oeste 57 Oeste 4.4 -- -- 94
2019-11-22 08:00:00 12.1 10 Sudoeste 35 Sudoeste 4 -- -- 94
2019-11-22 07:00:00 11.3 13 Sudoeste 43 Sudoeste 0.4 -- -- 94
2019-11-22 06:00:00 10.7 14 Sudoeste 49 Sudoeste 1.3 -- -- 94
2019-11-22 05:00:00 9.9 9 Oeste 25 Oeste 2 -- -- 94
2019-11-22 04:00:00 9.6 6 Noroeste 28 Sudoeste 1.4 -- -- 94
2019-11-22 03:00:00 9.9 10 Sur 28 Sudoeste 2.6 -- -- 92
2019-11-22 02:00:00 9.8 9 Sudoeste 23 Sudoeste 1.6 -- -- 92
2019-11-22 01:00:00 9.7 6 Oeste 24 Sudoeste 0.3 -- -- 91
2019-11-22 00:00:00 10.2 9 Sudoeste 25 Sudoeste 0 -- -- 87
2019-11-21 23:00:00 9.6 9 Sudoeste 25 Sudoeste 0.1 -- -- 89
2019-11-21 22:00:00 9.7 7 Sudoeste 23 Sudoeste 0 -- -- 90
2019-11-21 21:00:00 9.5 9 Sudoeste 21 Sudoeste 0 -- -- 92
2019-11-21 20:00:00 9.2 0 Calma 11 Oeste 0 -- -- 93
2019-11-21 19:00:00 9.6 2 Oeste 8 Oeste 0.8 -- -- 92
2019-11-21 18:00:00 9.8 0 Calma 17 Oeste 0 -- -- 91
2019-11-21 17:00:00 10.4 8 Oeste 30 Oeste 0.2 -- -- 86
2019-11-21 16:00:00 13.3 10 Oeste 32 Oeste 0 -- -- 75
2019-11-21 15:00:00 13.3 9 Oeste 32 Oeste 0 -- -- 75
2019-11-21 14:00:00 12.5 13 Oeste 30 Sudoeste 3.2 -- -- 85
2019-11-21 13:00:00 9.7 8 Oeste 24 Oeste 0.8 -- -- 91
2019-11-21 12:00:00 11.5 3 Oeste 8 Oeste 0 -- -- 93
2019-11-21 11:00:00 8.4 0 Calma 5 Oeste 0 -- -- 96
2019-11-21 10:00:00 7.3 2 Este 10 Nordeste 0 -- -- 96
2019-11-21 09:00:00 4.7 5 Nordeste 11 Nordeste 0 -- -- 96
2019-11-21 08:00:00 -- -- -- -- -- -- -- -- --
2019-11-21 07:00:00 -- -- -- -- -- -- -- -- --
2019-11-21 06:00:00 -- -- -- -- -- -- -- -- --
2019-11-21 05:00:00 -- -- -- -- -- -- -- -- --
2019-11-21 04:00:00 -- -- -- -- -- -- -- -- --
2019-11-21 03:00:00 -- -- -- -- -- -- -- -- --
2019-11-21 02:00:00 -- -- -- -- -- -- -- -- --
2019-11-21 01:00:00 -- -- -- -- -- -- -- -- --
2019-11-21 00:00:00 -- -- -- -- -- -- -- -- --
2019-11-20 23:00:00 -- -- -- -- -- -- -- -- --
2019-11-20 22:00:00 -- -- -- -- -- -- -- -- --
2019-11-20 21:00:00 -- -- -- -- -- -- -- -- --
2019-11-20 20:00:00 -- -- -- -- -- -- -- -- --
2019-11-20 19:00:00 8.4 0 Calma 9 Oeste 3 -- -- 95
2019-11-20 18:00:00 8.4 3 Oeste 17 Oeste 0.6 -- -- 95
2019-11-20 17:00:00 9.2 3 Oeste 10 Oeste 0 -- -- 95
2019-11-20 16:00:00 9 2 Noroeste 21 Oeste 0.2 -- -- 96
2019-11-20 15:00:00 9.2 6 Oeste 15 Sudoeste 0.8 -- -- 96
2019-11-20 14:00:00 8.6 4 Noroeste 13 Oeste 0.9 -- -- 96
2019-11-20 13:00:00 7.9 4 Noroeste 18 Sudoeste 3.1 -- -- 96
2019-11-20 12:00:00 8.2 5 Oeste 15 Oeste 1 -- -- 96
2019-11-20 11:00:00 6.2 0 Calma 13 Nordeste 0.9 -- -- 96
2019-11-20 10:00:00 5.4 9 Nordeste 15 Nordeste 0 -- -- 96
2019-11-20 09:00:00 4.8 9 Nordeste 15 Este 0 -- -- 96
2019-11-20 08:00:00 5 10 Nordeste 19 Nordeste 0 -- -- 96
2019-11-20 07:00:00 5.5 9 Nordeste 14 Nordeste 0 -- -- 96
2019-11-20 06:00:00 5.3 9 Nordeste 14 Nordeste 0 -- -- 96
2019-11-20 05:00:00 5.6 9 Nordeste 15 Sudeste 0 -- -- 96
2019-11-20 04:00:00 6.3 2 Nordeste 7 Este 0 -- -- 96
2019-11-20 03:00:00 7.7 0 Calma 8 Nordeste 0 -- -- 96
2019-11-20 02:00:00 8.5 3 Este 9 Oeste 0 -- -- 96
2019-11-20 01:00:00 8.6 0 Calma 7 Oeste 0 -- -- 96
2019-11-20 00:00:00 8.9 2 Oeste 12 Oeste 0 -- -- 96
2019-11-19 23:00:00 9.1 0 Calma 9 Nordeste 0 -- -- 96
2019-11-19 22:00:00 9.1 4 Este 8 Nordeste 0 -- -- 96
2019-11-19 21:00:00 9.2 0 Calma 5 Oeste 0 -- -- 96
2019-11-19 20:00:00 9 0 Calma 10 Oeste 0.8 -- -- 96
2019-11-19 19:00:00 8.9 2 Noroeste 9 Oeste 1.2 -- -- 96
2019-11-19 18:00:00 8.9 3 Noroeste 9 Oeste 0.9 -- -- 96
2019-11-19 17:00:00 8.8 3 Oeste 10 Oeste 0.3 -- -- 96
2019-11-19 16:00:00 8.8 4 Oeste 21 Oeste 0.3 -- -- 96
2019-11-19 15:00:00 8.8 5 Oeste 16 Oeste 0.8 -- -- 96
2019-11-19 14:00:00 8.6 3 Noroeste 14 Oeste 0.4 -- -- 96
2019-11-19 13:00:00 8.4 3 Noroeste 17 Noroeste 0.3 -- -- 96
2019-11-19 12:00:00 8 5 Oeste 15 Oeste 0.1 -- -- 96
2019-11-19 11:00:00 7.4 4 Oeste 13 Oeste 0 -- -- 96
2019-11-19 10:00:00 6.2 4 Nordeste 11 Nordeste 0 -- -- 96
2019-11-19 09:00:00 6.2 3 Oeste 10 Nordeste 0.4 -- -- 96
2019-11-19 08:00:00 4.9 4 Nordeste 15 Este 0.7 -- -- 96
2019-11-19 07:00:00 4.7 12 Nordeste 18 Nordeste 0 -- -- 96
2019-11-19 06:00:00 4.7 13 Nordeste 18 Nordeste 0 -- -- 96
2019-11-19 05:00:00 4.6 13 Nordeste 19 Este 0 -- -- 96
2019-11-19 04:00:00 4.5 12 Este 21 Este 0 -- -- 96
2019-11-19 03:00:00 4.6 14 Nordeste 22 Nordeste 0 -- -- 96
2019-11-19 02:00:00 4.9 7 Este 18 Este 0 -- -- 96
2019-11-19 01:00:00 5.1 13 Este 19 Este 0 -- -- 95
2019-11-19 00:00:00 5.5 10 Este 20 Nordeste 0 -- -- 95
2019-11-18 23:00:00 5.5 12 Nordeste 17 Nordeste 0 -- -- 95
2019-11-18 22:00:00 5.7 10 Nordeste 14 Nordeste 0 -- -- 94
2019-11-18 21:00:00 6.2 7 Nordeste 10 Nordeste 0 -- -- 93
2019-11-18 20:00:00 7.7 0 Calma 8 Nordeste 0 -- -- 91
2019-11-18 19:00:00 8.2 6 Nordeste 8 Nordeste 0 -- -- 88
2019-11-18 18:00:00 10.4 0 Calma 7 Oeste 0 -- -- 79
2019-11-18 17:00:00 12.1 4 Sudoeste 9 Sudoeste 0 -- -- 72
2019-11-18 16:00:00 12.5 0 Calma 6 Este 0 -- -- 77
2019-11-18 15:00:00 12 0 Calma 6 Este 0 -- -- 77
2019-11-18 14:00:00 10.8 0 Calma 6 Este 0 -- -- 88
2019-11-18 13:00:00 10.2 3 Nordeste 12 Este 0 -- -- 93
2019-11-18 12:00:00 10.2 8 Este 12 Este 0 -- -- 95
2019-11-18 11:00:00 8.5 7 Este 12 Este 0.3 -- -- 95
2019-11-18 10:00:00 6.6 5 Nordeste 8 Nordeste 0.2 -- -- 95
2019-11-18 09:00:00 6 5 Nordeste 9 Nordeste 0 -- -- 95
2019-11-18 08:00:00 5.8 7 Nordeste 10 Nordeste 0 -- -- 95
2019-11-18 07:00:00 5.9 0 Calma 9 Nordeste 0 -- -- 95
2019-11-18 06:00:00 6.2 0 Calma 7 Nordeste 0 -- -- 95
2019-11-18 05:00:00 5.7 0 Calma 9 Nordeste 0 -- -- 94
2019-11-18 04:00:00 6.2 4 Este 10 Nordeste 0 -- -- 94
2019-11-18 03:00:00 7 5 Nordeste 14 Nordeste 0.1 -- -- 93
2019-11-18 02:00:00 7.8 4 Norte 15 Norte 0 -- -- 93
2019-11-18 01:00:00 7.1 3 Este 4 Nordeste 0 -- -- 92
2019-11-18 00:00:00 7.8 0 Calma 13 Norte 0.2 -- -- 92
2019-11-17 23:00:00 8.5 6 Norte 13 Norte 0.4 -- -- 92
2019-11-17 22:00:00 8.8 0 Calma 6 Norte 0.1 -- -- 92
2019-11-17 21:00:00 8.7 0 Calma 4 Oeste 0 -- -- 92
2019-11-17 20:00:00 8.5 0 Calma 9 Nordeste 0.4 -- -- 92
2019-11-17 19:00:00 8.9 0 Calma 6 Sur 0.2 -- -- 88
2019-11-17 18:00:00 10 0 Calma 10 Noroeste 0.1 -- -- 77
2019-11-17 17:00:00 10.5 0 Calma 16 Norte 0 -- -- 77
2019-11-17 16:00:00 13.1 0 Calma 11 Oeste 0 -- -- 66
2019-11-17 15:00:00 12.3 2 Noroeste 18 Noroeste 0 -- -- 72
2019-11-17 14:00:00 11.7 3 Noroeste 15 Norte 0 -- -- 73
2019-11-17 13:00:00 11.5 0 Calma 13 Norte 0 -- -- 84
2019-11-17 12:00:00 10.7 0 Calma 6 Sudoeste 0.4 -- -- 95
2019-11-17 11:00:00 10.4 0 Calma 5 Sudoeste 0 -- -- 95
2019-11-17 10:00:00 9.9 0 Calma 4 Sudoeste 0 -- -- 95
2019-11-17 09:00:00 9.4 0 Calma 3 Oeste 0.2 -- -- 95
2019-11-17 08:00:00 9.3 0 Calma 7 Noroeste 0.8 -- -- 95
2019-11-17 07:00:00 9.3 0 Calma 10 Sudoeste 2.5 -- -- 95
2019-11-17 06:00:00 8.7 3 Oeste 19 Oeste 1.4 -- -- 95
2019-11-17 05:00:00 8.6 7 Oeste 24 Oeste 0.2 -- -- 95
2019-11-17 04:00:00 8.4 7 Oeste 19 Oeste 0 -- -- 95
2019-11-17 03:00:00 8.5 6 Oeste 17 Oeste 0 -- -- 94
2019-11-17 02:00:00 8.4 5 Oeste 23 Oeste 0 -- -- 94
2019-11-17 01:00:00 8.2 6 Oeste 17 Sudoeste 0 -- -- 94
2019-11-17 00:00:00 8.2 5 Oeste 17 Oeste 0 -- -- 94
2019-11-16 23:00:00 8.3 7 Oeste 19 Oeste 0.1 -- -- 94
2019-11-16 22:00:00 8.3 6 Oeste 14 Oeste 0 -- -- 94
2019-11-16 21:00:00 8.4 6 Oeste 22 Sudoeste 0 -- -- 93
2019-11-16 20:00:00 8.5 7 Oeste 22 Sudoeste 0 -- -- 91
2019-11-16 19:00:00 8.6 5 Oeste 16 Sudoeste 0 -- -- 89
2019-11-16 18:00:00 8.7 4 Oeste 17 Oeste 0 -- -- 90
2019-11-16 17:00:00 8.8 7 Oeste 17 Oeste 0 -- -- 89
2019-11-16 16:00:00 9.7 4 Oeste 12 Sur 0 -- -- 88
2019-11-16 15:00:00 9.3 4 Oeste 15 Oeste 0 -- -- 88
2019-11-16 14:00:00 9.6 5 Oeste 15 Oeste 0 -- -- 86
2019-11-16 13:00:00 9.9 4 Oeste 10 Noroeste 0 -- -- 95
2019-11-16 12:00:00 6.7 0 Calma 14 Nordeste 0 -- -- 96
2019-11-16 11:00:00 5.6 0 Calma 7 Nordeste 0 -- -- 96
2019-11-16 10:00:00 4.4 3 Este 5 Nordeste 0 -- -- 96
2019-11-16 09:00:00 3.6 0 Calma 3 Noroeste 0 -- -- 96
2019-11-16 08:00:00 3.6 0 Calma 14 Nordeste 0 -- -- 96
2019-11-16 07:00:00 3.6 0 Calma 5 Nordeste 0 -- -- 96
2019-11-16 06:00:00 3.8 0 Calma 13 Este 0 -- -- 96
2019-11-16 05:00:00 3.7 8 Este 12 Nordeste 0 -- -- 96
2019-11-16 04:00:00 3.8 6 Este 14 Este 0 -- -- 95
2019-11-16 03:00:00 3.7 6 Nordeste 9 Nordeste 0 -- -- 95
2019-11-16 02:00:00 4 0 Calma 5 Noroeste 0 -- -- 95
2019-11-16 01:00:00 4.8 0 Calma 6 Sudeste 1.9 -- -- 94
2019-11-16 00:00:00 5.3 0 Calma 15 Nordeste 3.1 -- -- 94